Content
SEND FEEDBACK

Daily
Averages
Monthly
Summary
United States of America

ALPENA, WEST VIRGINIA


Home > North America > United States > West Virginia
Elevation: 92 meters     Latitude: 38 55N     Longitude: 079 40W

WEATHER
 
SELECT A DAY
Number of Records: 253,735;   Date Range: 1/1/95 - 10/23/14
 
SHARE

PRINT THIS DATA

[ ← Previous Day ]
WEATHER ALMANAC - 23 JANUARY, 2013
[ Next Day → ]
[ °F ]   °C
Weather ElementAverageHighLow
Temperature-10 °C-7.2 °C (2:51 pm)-13.9 °C (5:51 am)
Dewpoint-16.3 °C-10 °C (10:51 pm)-21.1 °C (3:51 pm)
Humidity62.8 %86 % (9:48 pm)33 % (3:51 pm)
Barometer1022.7 hPa1028.1 hPa (8:51 am)1016.3 hPa (9:48 pm)
Wind Speed6.1 km/h20.4 km/h (12:51 pm)
Wind Gust31.5 km/h (2:51 pm)
Weather ElementAverage
Visibility10.5 km
Wind DirectionESE (116.9 °)

Weather ElementTotal
Precipitation2.54 mm
Heating Degree Days28.9 (Base 18.3)
Averaged from 29 records on 23 January, 2013
WEATHER CONDITIONS BREAKOUT
WIND DIRECTION BREAKOUT
WEATHER BY HOUR - 23 JANUARY, 2013
[ °F ]   °C
Local TimeTemperatureDewpointHumidityBarometerVisibilityWind DirectionWind SpeedGust SpeedPrecipitationEventsConditions
1:51 AM-12.8 °C-20 °C56 %1026.8 hPa16.1 kmVariable5.6 km/hClear
2:51 AM-13.3 °C-20 °C58 %1027.1 hPa16.1 kmWest (260°)7.4 km/hClear
3:51 AM-13.3 °C-20 °C58 %1027.1 hPa16.1 kmWSW (240°)13 km/hClear
4:51 AM-13.3 °C-20 °C58 %1027.1 hPa16.1 kmWest (260°)7.4 km/hClear
5:51 AM-13.9 °C-20 °C61 %1027.1 hPa16.1 kmWSW (250°)7.4 km/hClear
6:51 AM-13.9 °C-20 °C61 %1027.8 hPa16.1 kmWest (280°)7.4 km/hClear
7:51 AM-13.9 °C-20 °C61 %1027.8 hPa16.1 kmVariable5.6 km/hClear
8:51 AM-13.3 °C-19.4 °C61 %1028.1 hPa16.1 kmWNW (290°)9.3 km/hOvercast
9:51 AM-12.2 °C-18.9 °C58 %1027.8 hPa16.1 kmVariable5.6 km/hMostly Cloudy
10:51 AM-10.6 °C-18.3 °C54 %1027.8 hPa16.1 kmWest (260°)16.7 km/hOvercast
11:51 AM-10 °C-18.9 °C49 %1026.8 hPa16.1 kmWest (260°)13 km/hOvercast
12:51 PM-9 °C-19 °C45 %1020.7 hPa16.1 kmWest (270°)20.4 km/hOvercast
1:51 PM-8.3 °C-19.4 °C41 %1024.4 hPa16.1 kmWest (270°)13 km/hOvercast
2:51 PM-7.2 °C-20.6 °C34 %1023.7 hPa16.1 kmWSW (250°)20.4 km/h31.5 km/hOvercast
3:51 PM-7.2 °C-21.1 °C33 %1023.4 hPa16.1 kmVariable11.1 km/hOvercast
4:51 PM-7.8 °C-21.1 °C35 %1023.4 hPa16.1 kmWest (260°)9.3 km/h27.8 km/hOvercast
5:51 PM-7.8 °C-16.7 °C50 %1022.7 hPa12.9 kmWSW (240°)5.6 km/h0 mmSnowLight Snow
6:51 PM-8.3 °C-13.3 °C68 %1021.7 hPa6.4 kmCalm0.25 mmSnowLight Snow
7:21 PM-9 °C-13 °C73 %1017.3 hPa4 kmCalm0 mmSnowLight Snow
7:51 PM-8.9 °C-12.2 °C77 %1021.7 hPa2.9 kmCalm0.25 mmSnowLight Snow
8:01 PM-9 °C-12 °C79 %1017.3 hPa3.2 kmCalm0 mmSnowLight Snow
8:20 PM-9 °C-12 °C79 %1017.3 hPa2.9 kmCalm0 mmSnowLight Snow
8:51 PM-9 °C-12 °C79 %1016.9 hPa2.4 kmCalmSnowLight Snow
9:48 PM-9 °C-11 °C86 %1016.3 hPa1.6 kmCalm0.51 mmSnowLight Snow
9:51 PM-8.9 °C-11.1 °C84 %1020.7 hPa1.6 kmCalm0.51 mmSnowLight Snow
9:59 PM-8 °C-11 °C79 %1016.3 hPa1.3 kmCalm0 mmSnowLight Snow
10:33 PM-8 °C-11 °C79 %1016.3 hPa1.6 kmCalm0.25 mmSnowLight Snow
10:51 PM-7.8 °C-10 °C84 %1020 hPa2.9 kmCalm0.51 mmSnowLight Snow
11:51 PM-7.8 °C-10.6 °C81 %1019 hPa2.4 kmCalm0.25 mmSnowLight Snow
Hourly data recorded from KEKN, located 0 kilometers away from Alpena, West Virginia







STORIES FROM OUR PARTNERS